Regional Weather Roundup
Issued by NWS Memphis, TN

Home | Current Version | Previous Version | Text Only | Print | Product List | Glossary On
Versions: 1 2 3 4 5 6 7 8 9 10 11 12 13 14 15 16 17 18 19 20 21 22 23 24 25 26 27 28 29 30 31 32 33 34 35 36 37 38 39 40 41 42 43 44 45 46 47 48 49 50
000
ASUS44 KMEG 010410
RWRMEG
MEMPHIS CWA HOURLY WEATHER ROUNDUP
NATIONAL WEATHER SERVICE MEMPHIS TN
1100 PM CDT SAT APR 30 2016

...WEST TENNESSEE...

CITY           SKY/WX    TMP DP  RH WIND       PRES   REMARKS
MEMPHIS INTL   PTCLDY    68  64  87 S5        29.85R
NWS MEMPHIS      N/A     66 N/A N/A MISG        N/A
JACKSON        CLEAR     66  63  90 SE5       29.87R
LEXINGTON      CLOUDY    63  63 100 CALM      29.87S VSB 1/4
DYERSBURG      CLEAR     66  63  88 S3          N/A
UNION CITY     CLEAR     66  64  94 S7        29.85R


...EASTERN ARKANSAS...

CITY           SKY/WX    TMP DP  RH WIND       PRES   REMARKS
JONESBORO      CLEAR     69  63  81 S9        29.84R
WEST MEMPHIS   CLEAR     66  65  96 S3        29.84R
BATESVILLE     CLOUDY    70  61  73 CALM      29.84S
NEWPORT        CLEAR     68  65  90 SE5       29.84S
WALNUT RIDGE   MOCLDY    70  59  68 NW16      29.85R
BLYTHEVILLE    CLEAR     67  63  87 S7        29.85R
SEARCY         PTCLDY    67  64  90 CALM      29.85R
STUTTGART      MOCLDY    72  63  73 S8        29.84R
PINE BLUFF     CLEAR     68  66  93 S5        29.84R
MONTICELLO     CLEAR     71  68  90 CALM      29.83R


...NORTH MISSISSIPPI...

CITY           SKY/WX    TMP DP  RH WIND       PRES   REMARKS
TUPELO         CLEAR     70  64  81 S10G18    29.89R
OXFORD         CLEAR     64  64 100 S7        29.89S
BATESVILLE     FAIR      64  62  96 CALM      29.87R FOG
OLIVE BRANCH   CLEAR     64  64 100 CALM      29.86S
TUNICA         PTCLDY    68  64  88 SE6       29.86R
CORINTH        FOG       66  64  94 S3        29.87S VSB 1/4
GREENWOOD      CLEAR     67  63  87 S10       29.86R
COLUMBUS       CLEAR     68  65  92 SW6       29.89R
STARKVILLE     FAIR      64  61  88 CALM      29.89R
GOLDEN TRIANGL CLEAR     66  61  82 S7        29.89R


...SOUTHEAST MISSOURI...

CITY           SKY/WX    TMP DP  RH WIND       PRES   REMARKS
KENNETT        FAIR      68  64  88 S9        29.83R
WEST PLAINS    LGT RAIN  61  58  90 NW6       29.87R
POPLAR BLUFF   MOCLDY    69  62  78 S8        29.83R
CAPE GIRARDEAU CLOUDY    64  61  90 CALM      29.84R


...NORTHWEST ALABAMA...

CITY           SKY/WX    TMP DP  RH WIND       PRES   REMARKS


...MIDDLE TENNESSEE...

CITY           SKY/WX    TMP DP  RH WIND       PRES   REMARKS
NASHVILLE      CLOUDY    67  64  90 SE3       29.90S
CLARKSVILLE    FOG       64  62  93 CALM      29.89R VSB 1/2
COLUMBIA       CLOUDY   N/A N/A N/A CALM      29.89S


...WESTERN KENTUCKY...

CITY           SKY/WX    TMP DP  RH WIND       PRES   REMARKS
PADUCAH        PTCLDY    63  60  90 CALM      29.84S
FORT CAMPBELL  PTCLDY    66  66 100 SE5       29.88R


...CENTRAL ARKANSAS...

CITY           SKY/WX    TMP DP  RH WIND       PRES   REMARKS
LITTLE ROCK    MOCLDY    70  66  87 S6        29.82R


SKY/WX REPORTED AS FAIR MEANS FEW OR NO CLOUDS BELOW
12 THOUSAND FEET.




USA.gov is the U.S. government's official web portal to all federal, state and local government web resources and services.